Content
SEND FEEDBACK

Daily
Averages
Monthly
Summary
United States of America

NEW HARTFORD, CONNECTICUT


Home > North America > United States > Connecticut
Elevation: 710 feet     Latitude: 41 50N     Longitude: 073 02W

WEATHER
 
SELECT A DAY
Number of Records: 202,825;   Date Range: 1/1/95 - 10/23/14
 
SHARE

PRINT THIS DATA

[ ← Previous Day ]
WEATHER ALMANAC - JANUARY 23, 2013
[ Next Day → ]
[ °C ]   °F
Weather ElementAverageHighLow
Temperature10.7 °F18 °F (2:51 pm)6.1 °F (6:51 am)
Dewpoint-7.5 °F-2 °F (7:51 am)-11.2 °F (8:51 pm)
Humidity44.7 %67 % (7:51 am)32 % (12:51 pm)
Barometer30.16 in30.19 in (8:51 am)30.11 in (12:51 pm)
Wind Speed10.8 mph18.4 mph (2:51 pm)
Wind Gust29.9 mph (12:51 pm)
Weather ElementAverage
Visibility10 mi
Wind DirectionWNW (289.6 °)

Weather ElementTotal
Precipitation---
Heating Degree Days53 (Base 65)
Averaged from 23 records on January 23, 2013
WEATHER CONDITIONS BREAKOUT
WIND DIRECTION BREAKOUT
WEATHER BY HOUR - JANUARY 23, 2013
[ °C ]   °F
Local TimeTemperatureDewpointHumidityBarometerVisibilityWind DirectionWind SpeedGust SpeedPrecipitationEventsConditions
1:51 AM9.0 °F-8.0 °F46 %30.13 in10.0 miWest (280°)8.1 mphPartly Cloudy
2:51 AM9.0 °F-7.1 °F48 %30.14 in10.0 miWest (270°)6.9 mphPartly Cloudy
3:51 AM8.1 °F-6.0 °F53 %30.15 in10.0 miWest (260°)6.9 mphPartly Cloudy
4:51 AM8.1 °F-5.1 °F55 %30.16 in10.0 miWest (280°)6.9 mphPartly Cloudy
5:51 AM8.1 °F-4.0 °F58 %30.17 in10.0 miWest (270°)8.1 mphPartly Cloudy
6:51 AM6.1 °F-5.1 °F60 %30.17 in10.0 miWSW (250°)4.6 mphPartly Cloudy
7:51 AM7.0 °F-2.0 °F67 %30.18 in10.0 miWSW (250°)6.9 mphPartly Cloudy
8:51 AM10.9 °F-2.9 °F54 %30.19 in10.0 miWSW (250°)9.2 mphScattered Clouds
9:51 AM12.0 °F-5.1 °F46 %30.19 in10.0 miWNW (290°)13.8 mph19.6 mphScattered Clouds
10:51 AM14.0 °F-6.0 °F41 %30.18 in10.0 miWNW (300°)13.8 mph21.9 mphScattered Clouds
11:51 AM15.1 °F-9.0 °F34 %30.15 in10.0 miNW (320°)17.3 mph25.3 mphScattered Clouds
12:51 PM15.8 °F-9.4 °F32 %30.11 in10.0 miWNW (300°)15.0 mph29.9 mphMostly Cloudy
1:51 PM15.1 °F-9.0 °F34 %30.12 in10.0 miWest (270°)15.0 mph20.7 mphMostly Cloudy
2:51 PM18.0 °F-7.1 °F33 %30.13 in10.0 miWest (280°)18.4 mph27.6 mphMostly Cloudy
3:51 PM15.1 °F-9.0 °F34 %30.13 in10.0 miNNW (340°)15.0 mph23.0 mphMostly Cloudy
4:51 PM12.9 °F-9.0 °F37 %30.14 in10.0 miNNW (340°)10.4 mphScattered Clouds
5:51 PM12.0 °F-8.0 °F41 %30.16 in10.0 miNW (320°)13.8 mphScattered Clouds
6:51 PM10.9 °F-9.0 °F40 %30.18 in10.0 miWNW (290°)12.7 mphScattered Clouds
7:51 PM10.0 °F-11.0 °F38 %30.18 in10.0 miNW (310°)11.5 mphPartly Cloudy
8:51 PM8.6 °F-11.2 °F40 %30.17 in10.0 miNW (320°)8.1 mphPartly Cloudy
9:51 PM8.1 °F-9.9 °F44 %30.18 in10.0 miNW (310°)6.9 mphClear
10:51 PM7.0 °F-9.9 °F46 %30.17 in10.0 miWest (280°)9.2 mphClear
11:51 PM6.1 °F-9.9 °F48 %30.17 in10.0 miWest (280°)9.2 mphClear
Hourly data recorded from KBDL, located miles away from New Hartford, Connecticut







STORIES FROM OUR PARTNERS